Flag Weather past 2 weeks in Torrevieja, Spain

Now
66 °F

Passing clouds.


Feels Like: 66 °F
Forecast: 59 / 72 °F
Wind: 7 mph from East

Location: Murcia / San Javier

Current Time: Nov 24, 2014 at 5:47:04 PM

Latest Report: Nov 24, 2014 at 5:00 PM


Visibility: 6 mi

Pressure: 29.98 "Hg

Humidity: 88%

Dew point: 63 °F

Location of TorreviejaLocation

Historic Weather in Torrevieja — Graph

°F

Torrevieja temperature yesterday

Maximum temperature yesterday: 72 °F (at 2:00 PM)
Minimum temperature yesterday: 61 °F (at 9:00 PM)
Average temperature yesterday: 68 °F

Past Weeks' High & Low Weather Summary

 TemperatureHumidityPressure
High73 °F (Nov 12, 2:00 PM)100% (Nov 14, 7:00 AM)30.09 "Hg (Nov 14, 7:00 AM)
Low45 °F (Nov 17, 7:00 AM)26% (Nov 10, 4:00 PM)29.65 "Hg (Nov 11, 4:00 PM)
Average63 °F73%29.92 "Hg
* Reported Nov 9 4:00 PM — Nov 24 4:00 PM, Torrevieja, Weather by CustomWeather, © 2014

Note: Actual official high and low records may vary slightly from our data, if they occured in-between our weather recording intervals... More about our weather records

Advertising

Torrevieja weather history for previous 24 hours

 ConditionsComfort  
Time TempWeatherWind HumidityBarometerVisibility
4:00 PM
Nov 24
68 °FPassing clouds.8 mph83%29.98 "Hg6 mi
3:00 PM68 °FPassing clouds.9 mph83%29.95 "Hg6 mi
2:00 PM68 °FScattered clouds.8 mph83%29.98 "Hg6 mi
1:00 PM68 °FPassing clouds.8 mph78%29.98 "Hg6 mi
12:00 PM70 °FPassing clouds.8 mph73%30.01 "Hg6 mi
11:00 AM66 °FPassing clouds.9 mph83%30.01 "Hg6 mi
10:00 AM66 °FPassing clouds.3 mph73%29.98 "HgN/A
9:00 AM61 °FPassing clouds.5 mph83%29.98 "HgN/A
8:00 AM59 °FPassing clouds.3 mph82%29.95 "HgN/A
7:00 AM59 °FPassing clouds.7 mph88%29.95 "HgN/A
10:00 PM
Nov 23
61 °FClear.3 mph94%29.92 "Hg10 mi
9:00 PM61 °FClear.5 mph94%29.92 "Hg10 mi
8:00 PM64 °FClear.7 mph94%29.92 "Hg10 mi
7:00 PM66 °FClear.8 mph88%29.89 "Hg10 mi
6:00 PM66 °FPassing clouds.8 mph83%29.89 "HgN/A
5:00 PM68 °FPassing clouds.6 mph73%29.89 "HgN/A
Weather by CustomWeather, © 2014

See weather overviewHow to use our weather pages